TimeCST,TemperatureF,Dew PointF,Humidity,Sea Level PressureIn,VisibilityMPH,Wind Direction,Wind SpeedMPH,Gust SpeedMPH,PrecipitationIn,Events,Conditions,WindDirDegrees,DateUTC
12:15 AM,33.4,28.9,84,30.30,10.0,West,6.9,-,N/A,,Clear,280,2013-12-26 06:15:00
12:35 AM,34.0,29.5,84,30.31,10.0,WNW,10.4,-,N/A,,Clear,290,2013-12-26 06:35:00
12:55 AM,34.3,29.8,84,30.31,10.0,WNW,8.1,-,N/A,,Mostly Cloudy,290,2013-12-26 06:55:00
1:15 AM,34.3,30.2,85,30.31,10.0,WNW,8.1,-,N/A,,Overcast,290,2013-12-26 07:15:00
1:35 AM,34.2,30.2,85,30.32,10.0,WNW,9.2,-,N/A,,Overcast,300,2013-12-26 07:35:00
1:55 AM,34.5,30.4,85,30.33,10.0,WNW,6.9,-,N/A,,Mostly Cloudy,290,2013-12-26 07:55:00
2:15 AM,33.6,29.8,86,30.34,10.0,WNW,5.8,-,N/A,,Scattered Clouds,300,2013-12-26 08:15:00
2:35 AM,33.3,30.0,88,30.34,10.0,West,3.5,-,N/A,,Mostly Cloudy,270,2013-12-26 08:35:00
2:55 AM,33.3,30.2,89,30.34,10.0,West,4.6,-,N/A,,Overcast,260,2013-12-26 08:55:00
3:15 AM,32.4,29.7,90,30.34,10.0,West,5.8,-,N/A,,Scattered Clouds,270,2013-12-26 09:15:00
3:35 AM,32.0,29.3,90,30.34,10.0,West,5.8,-,N/A,,Clear,280,2013-12-26 09:35:00
3:55 AM,32.0,29.1,89,30.34,10.0,West,4.6,-,N/A,,Clear,270,2013-12-26 09:55:00
4:15 AM,31.5,28.9,90,30.35,7.0,West,4.6,-,N/A,,Clear,270,2013-12-26 10:15:00
4:35 AM,31.1,28.2,89,30.35,10.0,WSW,4.6,-,N/A,,Clear,250,2013-12-26 10:35:00
4:55 AM,29.1,28.2,96,30.36,7.0,WSW,4.6,-,N/A,,Clear,250,2013-12-26 10:55:00
5:15 AM,30.0,28.6,94,30.37,10.0,WSW,4.6,-,N/A,,Clear,250,2013-12-26 11:15:00
5:35 AM,29.3,28.4,96,30.37,7.0,WSW,4.6,-,N/A,,Clear,250,2013-12-26 11:35:00
5:55 AM,28.9,28.2,97,30.37,7.0,SW,4.6,-,N/A,,Clear,220,2013-12-26 11:55:00
6:15 AM,26.6,26.1,98,30.38,5.0,Calm,Calm,-,N/A,,Clear,0,2013-12-26 12:15:00
6:35 AM,27.3,27.1,99,30.39,5.0,Calm,Calm,-,N/A,,Clear,0,2013-12-26 12:35:00
6:55 AM,26.4,25.9,98,30.39,5.0,Calm,Calm,-,N/A,,Clear,0,2013-12-26 12:55:00
7:15 AM,27.0,26.8,99,30.40,4.0,Calm,Calm,-,N/A,,Clear,0,2013-12-26 13:15:00
7:35 AM,27.5,27.3,99,30.40,5.0,SW,3.5,-,N/A,,Clear,220,2013-12-26 13:35:00
7:55 AM,28.4,28.0,99,30.41,5.0,WSW,4.6,-,N/A,,Clear,240,2013-12-26 13:55:00
8:15 AM,32.0,31.1,96,30.41,7.0,WSW,3.5,-,N/A,,Clear,250,2013-12-26 14:15:00
8:35 AM,32.2,31.5,97,30.42,7.0,SW,4.6,-,N/A,,Clear,230,2013-12-26 14:35:00
8:55 AM,33.8,32.0,93,30.43,7.0,WSW,4.6,-,N/A,,Clear,250,2013-12-26 14:55:00
9:15 AM,35.1,31.8,88,30.44,10.0,WSW,4.6,-,N/A,,Clear,250,2013-12-26 15:15:00
9:35 AM,36.1,31.3,83,30.44,10.0,West,4.6,-,N/A,,Clear,280,2013-12-26 15:35:00
9:55 AM,36.9,31.1,80,30.44,10.0,WNW,3.5,-,N/A,,Clear,300,2013-12-26 15:55:00
10:15 AM,37.6,31.3,78,30.44,10.0,West,3.5,-,N/A,,Clear,280,2013-12-26 16:15:00
10:35 AM,38.8,30.4,72,30.44,10.0,WSW,3.5,-,N/A,,Clear,240,2013-12-26 16:35:00
10:55 AM,39.6,30.9,71,30.43,10.0,Calm,Calm,-,N/A,,Clear,0,2013-12-26 16:55:00
11:15 AM,40.1,30.0,67,30.43,10.0,WSW,4.6,-,N/A,,Clear,240,2013-12-26 17:15:00
11:35 AM,41.0,28.8,62,30.41,10.0,WSW,6.9,-,N/A,,Clear,240,2013-12-26 17:35:00
11:55 AM,41.9,28.8,60,30.40,10.0,SW,4.6,-,N/A,,Clear,220,2013-12-26 17:55:00
12:15 PM,42.4,27.7,56,30.39,10.0,WSW,5.8,-,N/A,,Clear,250,2013-12-26 18:15:00
12:35 PM,42.8,27.1,54,30.39,10.0,NW,3.5,-,N/A,,Clear,320,2013-12-26 18:35:00
12:55 PM,43.7,27.9,54,30.39,10.0,Calm,Calm,-,N/A,,Clear,0,2013-12-26 18:55:00
1:15 PM,44.4,28.9,55,30.38,10.0,West,4.6,-,N/A,,Clear,280,2013-12-26 19:15:00
1:35 PM,44.6,27.5,51,30.38,10.0,West,4.6,-,N/A,,Clear,270,2013-12-26 19:35:00
1:55 PM,45.3,27.5,50,30.37,10.0,Calm,Calm,-,N/A,,Clear,0,2013-12-26 19:55:00
2:15 PM,45.0,26.8,49,30.37,10.0,West,3.5,-,N/A,,Clear,260,2013-12-26 20:15:00
2:35 PM,45.5,26.8,48,30.36,10.0,NW,3.5,-,N/A,,Clear,320,2013-12-26 20:35:00
2:55 PM,45.0,25.9,47,30.37,10.0,Calm,Calm,-,N/A,,Clear,0,2013-12-26 20:55:00
3:15 PM,44.8,25.7,47,30.38,10.0,Calm,Calm,-,N/A,,Clear,0,2013-12-26 21:15:00
3:35 PM,44.6,26.6,49,30.39,10.0,NNE,4.6,-,N/A,,Clear,20,2013-12-26 21:35:00
3:55 PM,43.9,28.6,55,30.38,10.0,Calm,Calm,-,N/A,,Clear,0,2013-12-26 21:55:00
4:15 PM,42.8,29.1,58,30.38,10.0,Calm,Calm,-,N/A,,Clear,0,2013-12-26 22:15:00
4:35 PM,41.4,27.5,58,30.38,10.0,Calm,Calm,-,N/A,,Clear,0,2013-12-26 22:35:00
4:55 PM,40.3,27.9,61,30.38,10.0,Calm,Calm,-,N/A,,Clear,0,2013-12-26 22:55:00
5:15 PM,38.1,27.3,65,30.39,10.0,Calm,Calm,-,N/A,,Clear,0,2013-12-26 23:15:00
5:35 PM,37.4,27.5,67,30.38,10.0,Calm,Calm,-,N/A,,Clear,0,2013-12-26 23:35:00
5:55 PM,36.5,27.5,70,30.38,10.0,Calm,Calm,-,N/A,,Clear,0,2013-12-26 23:55:00
6:15 PM,34.2,27.3,76,30.38,10.0,SSE,3.5,-,N/A,,Clear,150,2013-12-27 00:15:00
6:35 PM,34.5,27.0,74,30.38,10.0,South,3.5,-,N/A,,Clear,170,2013-12-27 00:35:00
6:55 PM,36.0,26.8,69,30.37,10.0,South,4.6,-,N/A,,Clear,170,2013-12-27 00:55:00
7:15 PM,32.0,26.6,80,30.38,10.0,South,3.5,-,N/A,,Clear,170,2013-12-27 01:15:00
7:35 PM,31.5,26.6,82,30.38,10.0,Calm,Calm,-,N/A,,Clear,0,2013-12-27 01:35:00
7:55 PM,31.6,27.1,83,30.38,10.0,South,3.5,-,N/A,,Clear,170,2013-12-27 01:55:00
8:15 PM,31.1,27.5,87,30.38,10.0,South,4.6,-,N/A,,Clear,180,2013-12-27 02:15:00
8:35 PM,32.2,28.2,85,30.38,10.0,South,3.5,-,N/A,,Clear,170,2013-12-27 02:35:00
8:55 PM,30.4,27.3,88,30.37,10.0,South,4.6,-,N/A,,Clear,180,2013-12-27 02:55:00
9:15 PM,32.0,28.2,86,30.37,10.0,South,3.5,-,N/A,,Clear,180,2013-12-27 03:15:00
9:35 PM,29.8,26.6,88,30.37,10.0,South,4.6,-,N/A,,Clear,190,2013-12-27 03:35:00
9:55 PM,31.8,27.0,82,30.37,10.0,South,4.6,-,N/A,,Clear,180,2013-12-27 03:55:00
10:15 PM,32.0,27.0,82,30.37,10.0,Calm,Calm,-,N/A,,Clear,0,2013-12-27 04:15:00
10:35 PM,30.6,27.7,89,30.39,10.0,SW,4.6,-,N/A,,Clear,230,2013-12-27 04:35:00
10:55 PM,29.8,26.6,88,30.39,10.0,Calm,Calm,-,N/A,,Clear,0,2013-12-27 04:55:00
11:15 PM,29.1,25.9,88,30.39,10.0,WSW,4.6,-,N/A,,Clear,240,2013-12-27 05:15:00
11:35 PM,30.6,25.9,83,30.40,10.0,Calm,Calm,-,N/A,,Clear,0,2013-12-27 05:35:00
11:55 PM,28.8,26.2,90,30.40,10.0,Calm,Calm,-,N/A,,Clear,0,2013-12-27 05:55:00